User: anonymous   Login
Location: Ottawa
(45.4170°N, 75.7000°W)
Time: 01:19:25
(UTC-04:00)
Language:

Aureole 3 Rocket - Orbit

View from above orbital plane
View from above orbital plane
View from above satellite
View from above satellite

Ground track
Ground track

The orbit data is extracted from the following two-line orbital elements,

1 12849U 81094B   15117.50059137  .00002607  00000-0  24422-3 0  9993
2 12849 082.4951 046.2081 0907641 355.5844 003.7654 13.49107535636476
Epoch (UTC): 27 April 2015 12:00:51
Eccentricity: 0.0907641
inclination: 82.4951°
perigee height: 399 km
apogee height: 1752 km
right ascension of ascending node: 46.2081°
argument of perigee: 355.5844°
revolutions per day: 13.49107535
mean anomaly at epoch: 3.7654°
orbit number at epoch: 63647

The dashed part of the orbit path shows where the satellite is in the earth's shadow,  

DLR